Terre Haute, IN

4:24 PM EST on December 08, 2019 (GMT -0500)
Terre Haute International-Hulman

Weather History for KHUF - October, 2019

Change the Weather History Date:

Sunday, October 13, 2019

  Actual Average Record
Temperature  
Mean Temperature 55 °F 55 °F  
Max Temperature 67 °F 67 °F 85 °F (1962)
Min Temperature 42 °F 43 °F 23 °F (1979)
Degree Days  
Heating Degree Days 10 10  
Month to date heating degree days 73 112  
Since 1 July heating degree days 75 190  
Cooling Degree Days 0 0  
Month to date cooling degree days 34 12  
Year to date cooling degree days 1298 990  
Growing Degree Days 4 (Base 50)    
Moisture  
Dew Point 37 °F    
Average Humidity 57    
Maximum Humidity 76    
Minimum Humidity 37    
Precipitation  
Precipitation 0.00 in 0.11 in 2.36 in (2001)
Month to date precipitation 1.92 1.47  
Year to date precipitation 39.85 36.17  
Sea Level Pressure  
Sea Level Pressure 29.96 in    
Wind  
Wind Speed 9 mph (SW)    
Max Wind Speed 18 mph    
Max Gust Speed 27 mph    
Visibility 10 miles    
Events      
T = Trace of Precipitation, MM = Missing Value Source: NWS Daily Summary

Daily Weather History Graph

Daily Weather History Graph

Search for Another Location

Airport or City:

Astronomy

Oct. 13, 2019 Rise Set
Actual Time 7:56 AM EDT 7:13 PM EDT
Civil Twilight 7:29 AM EDT 7:40 PM EDT
Nautical Twilight 6:58 AM EDT 8:11 PM EDT
Astronomical Twilight 6:27 AM EDT 8:42 PM EDT
Moon 7:35 PM EDT (10/13) 7:31 AM EDT (10/13)
Length of Visible Light 12h 10m
Length of Day
11h 16m
Full, 100% of the Moon is Illuminated
Oct 13
Full
Oct 13
Full
Oct 21
Last Quarter
Oct 27
New
Nov 4
First Quarter

Hourly Weather History & Observations

Time (EDT) Temp. Windchill Dew Point Humidity Pressure Visibility Wind Dir Wind Speed Gust Speed Precip Events Conditions
12:53 AM 43.0 °F 38.8 °F 34.0 °F 71% 30.03 in 10.0 mi South 6.9 mph - N/A   Clear
1:53 AM 44.1 °F 39.0 °F 34.0 °F 68% 30.01 in 10.0 mi South 9.2 mph - N/A   Clear
2:53 AM 45.0 °F 39.3 °F 34.0 °F 65% 30.01 in 10.0 mi SSW 11.5 mph - N/A   Clear
3:53 AM 44.1 °F 39.5 °F 34.0 °F 68% 29.99 in 10.0 mi SSW 8.1 mph - N/A   Clear
4:53 AM 43.0 °F 38.8 °F 34.0 °F 71% 29.99 in 10.0 mi SSW 6.9 mph - N/A   Clear
5:53 AM 43.0 °F 38.2 °F 34.0 °F 71% 29.98 in 10.0 mi SSW 8.1 mph - N/A   Clear
6:53 AM 42.1 °F 37.1 °F 34.0 °F 73% 29.99 in 10.0 mi SSW 8.1 mph - N/A   Clear
7:53 AM 42.1 °F 37.1 °F 35.1 °F 76% 29.99 in 10.0 mi SSW 8.1 mph - N/A   Clear
8:53 AM 45.0 °F 40.6 °F 35.1 °F 68% 29.99 in 10.0 mi SW 8.1 mph - N/A   Clear
9:53 AM 48.0 °F - 36.0 °F 63% 29.99 in 10.0 mi SSW 10.4 mph - N/A   Clear
10:53 AM 53.1 °F - 37.0 °F 55% 29.99 in 10.0 mi WSW 15.0 mph 20.7 mph N/A   Clear
11:53 AM 55.9 °F - 39.0 °F 53% 29.98 in 10.0 mi SW 11.5 mph - N/A   Clear
12:53 PM 59.0 °F - 39.0 °F 48% 29.97 in 10.0 mi WSW 11.5 mph - N/A   Clear
1:53 PM 62.1 °F - 39.9 °F 44% 29.95 in 10.0 mi SW 12.7 mph - N/A   Clear
2:53 PM 64.9 °F - 39.9 °F 40% 29.91 in 10.0 mi SW 12.7 mph - N/A   Clear
3:53 PM 66.9 °F - 39.0 °F 36% 29.90 in 10.0 mi WSW 12.7 mph 21.9 mph N/A   Clear
4:53 PM 66.9 °F - 39.9 °F 37% 29.89 in 10.0 mi SW 16.1 mph 24.2 mph N/A   Clear
5:53 PM 66.0 °F - 39.0 °F 37% 29.88 in 10.0 mi SSW 15.0 mph - N/A   Clear
6:53 PM 64.0 °F - 37.0 °F 37% 29.89 in 10.0 mi SW 9.2 mph - N/A   Clear
7:53 PM 57.0 °F - 37.9 °F 49% 29.91 in 10.0 mi SSW 5.8 mph - N/A   Clear
8:53 PM 53.1 °F - 39.0 °F 59% 29.93 in 10.0 mi SW 3.5 mph - N/A   Clear
9:53 PM 52.0 °F - 39.9 °F 63% 29.95 in 10.0 mi WSW 3.5 mph - N/A   Clear
10:53 PM 52.0 °F - 39.9 °F 63% 29.96 in 10.0 mi SW 4.6 mph - N/A   Clear
11:53 PM 48.9 °F - 39.9 °F 71% 29.97 in 10.0 mi WNW 4.6 mph - N/A   Clear